This is the latest recevied weather packets stored in our database for station/object BMCB-31. If no packets are shown the sender has not sent any weather packets the latest 10 day(s).
| Time | Temp. | Humidity | Pressure | Rain* | Wind** | Luminosity | Snow |
|---|---|---|---|---|---|---|---|
| 1777842058 | 11.67° C | 90% | 1015.3 hPa | 0 mm | - | 0 W/m² | - |
| 1777838461 | 12.78° C | 88% | 1015 hPa | 0 mm | - | 0 W/m² | - |
| 1777837860 | 12.78° C | 88% | 1015 hPa | 0 mm | - | 0 W/m² | - |
| 1777837263 | 12.78° C | 88% | 1015 hPa | 0 mm | - | 0 W/m² | - |
| 1777834861 | 13.33° C | 87% | 1014.9 hPa | 0 mm | - | 0 W/m² | - |
| 1777833060 | 13.33° C | 85% | 1014.6 hPa | 0 mm | - | 8 W/m² | - |
| 1777829460 | 13.89° C | 83% | 1014.1 hPa | 0 mm | - | 34 W/m² | - |
| 1777824054 | 15° C | 83% | 1014.1 hPa | 0 mm | - | 176 W/m² | - |
| 1777819855 | 13.89° C | 88% | 1014.5 hPa | 0.51 mm | - | 112 W/m² | - |
| 1777812053 | 13.33° C | 83% | 1015 hPa | 0.51 mm | - | 172 W/m² | - |
| 1777809659 | 12.78° C | 86% | 1015.1 hPa | 1.02 mm | - | 210 W/m² | - |
| 1777806660 | 13.89° C | 77% | 1015.1 hPa | 0.25 mm | - | 148 W/m² | - |
| 1777804267 | 15.56° C | 61% | 1014.7 hPa | 0 mm | - | 216 W/m² | - |
| 1777799454 | 15.56° C | 54% | 1014.2 hPa | 0 mm | - | 164 W/m² | - |
| 1777798854 | 15.56° C | 55% | 1014.2 hPa | 0 mm | - | 230 W/m² | - |
| 1777792258 | 15° C | 57% | 1014.1 hPa | 0 mm | - | 282 W/m² | - |
| 1777791657 | 15° C | 57% | 1014.1 hPa | 0 mm | - | 242 W/m² | - |
| 1777791056 | 14.44° C | 58% | 1014 hPa | 0 mm | - | 228 W/m² | - |
| 1777788656 | 13.89° C | 60% | 1014.4 hPa | 0 mm | - | 112 W/m² | - |
| 1777788054 | 13.89° C | 61% | 1014.4 hPa | 0 mm | - | 132 W/m² | - |
| 1777787454 | 13.33° C | 62% | 1014.5 hPa | 0 mm | - | 88 W/m² | - |
| 1777786856 | 13.33° C | 63% | 1014.6 hPa | 0 mm | - | 70 W/m² | - |
| 1777782653 | 12.78° C | 69% | 1014.7 hPa | 0 mm | - | 14 W/m² | - |
| 1777781455 | 12.22° C | 72% | 1014.8 hPa | 0 mm | - | 0 W/m² | - |
| 1777777854 | 12.78° C | 78% | 1015 hPa | 0 mm | - | 0 W/m² | - |
* Rain latest hour (hover to see other rain measurements)
** Current wind speed in m/s (hover to see current wind gust speed)